| time (UTC) | temp C | wind direction | speed KPH | gust KPH | rain 1hr cm | rain 24hr cm | rain mn cm | humidity % | barometer mb |
| 20260507015000 | 13 | 19 | 0.0 | 1.6 | 0.00 | 0.48 | 0.48 | 99 | 1005.3 |
| 20260507014457 | 14 | 295 | 3.2 | 3.2 | 0.00 | 0.48 | 0.48 | 99 | 1005.4 |
| 20260507013953 | 14 | 358 | 0.0 | 1.6 | 0.00 | 0.48 | 0.48 | 99 | 1005.4 |
| 20260507013449 | 15 | 315 | 3.2 | 3.2 | 0.00 | 0.48 | 0.48 | 99 | 1005.3 |
| 20260507012947 | 15 | 267 | 1.6 | 1.6 | 0.00 | 0.48 | 0.48 | 99 | 1005.4 |
| 20260507012443 | 15 | 307 | 3.2 | 3.2 | 0.00 | 0.48 | 0.48 | 99 | 1005.2 |
| 20260507011940 | 15 | 228 | 1.6 | 1.6 | 0.00 | 0.48 | 0.48 | 99 | 1004.9 |
| 20260507011437 | 15 | 199 | 0.0 | 0.0 | 0.00 | 0.48 | 0.48 | 99 | 1004.9 |
| 20260507010932 | 15 | 192 | 0.0 | 1.6 | 0.00 | 0.48 | 0.48 | 99 | 1004.8 |
| 20260507010427 | 15 | 228 | 1.6 | 1.6 | 0.00 | 0.48 | 0.48 | 99 | 1004.7 |
| 20260507005924 | 15 | 239 | 0.0 | 1.6 | 0.00 | 0.48 | 0.48 | 99 | 1004.7 |
| 20260507005421 | 15 | 223 | 0.0 | 0.0 | 0.00 | 0.48 | 0.48 | 99 | 1004.8 |
| 20260507004918 | 15 | 220 | 0.0 | 1.6 | 0.00 | 0.48 | 0.48 | 99 | 1004.7 |
| 20260507004414 | 15 | 214 | 0.0 | 1.6 | 0.00 | 0.48 | 0.48 | 99 | 1004.6 |
| 20260507003912 | 15 | 131 | 0.0 | 0.0 | 0.00 | 0.48 | 0.48 | 99 | 1004.3 |
| 20260507003407 | 15 | 243 | 1.6 | 1.6 | 0.00 | 0.48 | 0.48 | 99 | 1004.6 |
| 20260507002903 | 15 | 225 | 0.0 | 1.6 | 0.00 | 0.48 | 0.48 | 99 | 1004.4 |
| 20260507002359 | 15 | 98 | 0.0 | 0.0 | 0.00 | 0.48 | 0.48 | 99 | 1004.7 |
| 20260507001856 | 15 | 103 | 0.0 | 0.0 | 0.00 | 0.48 | 0.48 | 99 | 1004.4 |
| 20260507001353 | 15 | 88 | 0.0 | 0.0 | 0.00 | 0.48 | 0.48 | 99 | 1004.3 |
| 20260507000850 | 15 | 166 | 1.6 | 1.6 | 0.00 | 0.48 | 0.48 | 99 | 1004.3 |
| 20260507000345 | 15 | 216 | 0.0 | 1.6 | 0.00 | 0.48 | 0.48 | 99 | 1004.4 |
| 20260506235842 | 15 | 174 | 0.0 | 1.6 | 0.00 | 0.48 | 0.48 | 99 | 1004.1 |
| 20260506235339 | 15 | 189 | 1.6 | 3.2 | 0.00 | 0.48 | 0.48 | 99 | 1004.2 |
| 20260506234835 | 15 | 284 | 3.2 | 3.2 | 0.00 | 0.48 | 0.48 | 99 | 1003.9 |
| 20260506234333 | 15 | 171 | 1.6 | 1.6 | 0.00 | 0.48 | 0.48 | 99 | 1003.9 |
| 20260506233830 | 15 | 186 | 0.0 | 1.6 | 0.00 | 0.48 | 0.48 | 99 | 1004.1 |
| 20260506233325 | 15 | 158 | 0.0 | 1.6 | 0.00 | 0.48 | 0.48 | 99 | 1003.9 |
| 20260506232823 | 15 | 288 | 3.2 | 4.8 | 0.00 | 0.48 | 0.48 | 99 | 1004.1 |
| 20260506232318 | 15 | 90 | 1.6 | 1.6 | 0.00 | 0.48 | 0.48 | 99 | 1004.1 |
| 20260506231815 | 15 | 166 | 1.6 | 1.6 | 0.00 | 0.48 | 0.48 | 99 | 1004.2 |
| 20260506231313 | 15 | 226 | 1.6 | 3.2 | 0.00 | 0.48 | 0.48 | 99 | 1004.3 |
| 20260506230810 | 15 | 182 | 1.6 | 1.6 | 0.00 | 0.48 | 0.48 | 99 | 1004.3 |
| 20260506230307 | 15 | 220 | 1.6 | 3.2 | 0.00 | 0.48 | 0.48 | 99 | 1004.2 |
| 20260506225803 | 15 | 94 | 0.0 | 0.0 | 0.00 | 0.48 | 0.48 | 99 | 1004.1 |
| 20260506225300 | 15 | 247 | 1.6 | 1.6 | 0.00 | 0.48 | 0.48 | 99 | 1003.9 |
| 20260506224756 | 15 | 282 | 0.0 | 0.0 | 0.00 | 0.48 | 0.48 | 99 | 1004.0 |
| 20260506224254 | 15 | 333 | 0.0 | 0.0 | 0.00 | 0.48 | 0.48 | 99 | 1004.0 |
| 20260506223750 | 15 | 9 | 0.0 | 0.0 | 0.00 | 0.48 | 0.48 | 99 | 1004.0 |
| 20260506223240 | 15 | 105 | 0.0 | 1.6 | 0.00 | 0.48 | 0.48 | 99 | 1004.0 |
| 20260506222737 | 15 | 182 | 1.6 | 1.6 | 0.00 | 0.48 | 0.48 | 99 | 1003.7 |
| 20260506222233 | 15 | 102 | 0.0 | 0.0 | 0.00 | 0.48 | 0.48 | 99 | 1003.7 |
| 20260506221731 | 15 | 203 | 0.0 | 0.0 | 0.00 | 0.48 | 0.48 | 99 | 1003.7 |
| 20260506221229 | 15 | 328 | 0.0 | 0.0 | 0.00 | 0.48 | 0.48 | 99 | 1003.6 |
| 20260506220726 | 15 | 230 | 1.6 | 1.6 | 0.00 | 0.48 | 0.48 | 99 | 1003.8 |
| 20260506220220 | 15 | 224 | 6.4 | 9.7 | 0.00 | 0.48 | 0.48 | 99 | 1003.6 |
| 20260506215717 | 15 | 216 | 1.6 | 1.6 | 0.00 | 0.48 | 0.48 | 99 | 1003.6 |
| 20260506215213 | 15 | 339 | 1.6 | 1.6 | 0.00 | 0.48 | 0.48 | 99 | 1003.6 |
| 20260506214710 | 15 | 233 | 4.8 | 4.8 | 0.00 | 0.48 | 0.48 | 99 | 1003.5 |
| 20260506214207 | 15 | 291 | 1.6 | 1.6 | 0.00 | 0.48 | 0.48 | 99 | 1003.4 |
| 20260506213705 | 15 | 269 | 3.2 | 4.8 | 0.00 | 0.48 | 0.48 | 99 | 1003.5 |
| 20260506213203 | 15 | 206 | 1.6 | 1.6 | 0.00 | 0.48 | 0.48 | 99 | 1003.3 |
| 20260506212659 | 15 | 135 | 4.8 | 4.8 | 0.00 | 0.48 | 0.48 | 99 | 1003.4 |
| 20260506212155 | 15 | 43 | 1.6 | 1.6 | 0.00 | 0.48 | 0.48 | 99 | 1003.5 |
| 20260506211650 | 15 | 215 | 1.6 | 1.6 | 0.00 | 0.48 | 0.48 | 99 | 1003.4 |
| 20260506211147 | 15 | 106 | 0.0 | 0.0 | 0.00 | 0.48 | 0.48 | 99 | 1003.1 |
| 20260506210644 | 15 | 58 | 0.0 | 0.0 | 0.00 | 0.48 | 0.48 | 99 | 1003.2 |
| 20260506210141 | 15 | 13 | 1.6 | 1.6 | 0.00 | 0.48 | 0.48 | 99 | 1003.3 |
| 20260506205638 | 15 | 305 | 1.6 | 1.6 | 0.00 | 0.48 | 0.48 | 99 | 1003.2 |
| 20260506205132 | 15 | 240 | 1.6 | 3.2 | 0.00 | 0.48 | 0.48 | 99 | 1003.3 |
| 20260506204631 | 15 | 260 | 1.6 | 1.6 | 0.00 | 0.48 | 0.48 | 99 | 1003.3 |
| 20260506204127 | 15 | 74 | 0.0 | 0.0 | 0.00 | 0.48 | 0.48 | 99 | 1003.2 |
| 20260506203626 | 15 | 71 | 0.0 | 0.0 | 0.00 | 0.48 | 0.48 | 99 | 1003.6 |
| 20260506203122 | 15 | 98 | 0.0 | 0.0 | 0.13 | 0.48 | 0.48 | 99 | 1003.5 |
| 20260506202620 | 15 | 265 | 3.2 | 3.2 | 0.13 | 0.48 | 0.48 | 99 | 1003.6 |
| 20260506202116 | 15 | 250 | 1.6 | 3.2 | 0.18 | 0.46 | 0.46 | 99 | 1003.5 |
| 20260506201613 | 15 | 4 | 1.6 | 1.6 | 0.30 | 0.46 | 0.46 | 99 | 1003.6 |
| 20260506201110 | 15 | 217 | 1.6 | 1.6 | 0.30 | 0.43 | 0.43 | 99 | 1003.5 |
| 20260506200606 | 15 | 182 | 1.6 | 1.6 | 0.30 | 0.41 | 0.41 | 99 | 1003.6 |
| 20260506195559 | 15 | 243 | 1.6 | 1.6 | 0.30 | 0.36 | 0.36 | 99 | 1004.0 |
| 20260506195056 | 15 | 338 | 3.2 | 4.8 | 0.30 | 0.33 | 0.33 | 99 | 1003.9 |
| 20260506194554 | 15 | 79 | 0.0 | 0.0 | 0.18 | 0.30 | 0.30 | 99 | 1003.8 |
| 20260506194049 | 15 | 308 | 0.0 | 1.6 | 0.18 | 0.28 | 0.28 | 99 | 1004.1 |
| 20260506193548 | 15 | 271 | 0.0 | 1.6 | 0.30 | 0.28 | 0.28 | 99 | 1004.1 |
| 20260506193045 | 15 | 252 | 1.6 | 1.6 | 0.30 | 0.25 | 0.25 | 99 | 1004.3 |
| 20260506192541 | 15 | 257 | 1.6 | 3.2 | 0.18 | 0.23 | 0.23 | 99 | 1004.3 |
| 20260506192037 | 15 | 278 | 0.0 | 1.6 | 0.13 | 0.20 | 0.20 | 99 | 1004.2 |
| 20260506191534 | 15 | 239 | 1.6 | 1.6 | 0.13 | 0.20 | 0.20 | 99 | 1004.3 |
| 20260506191030 | 15 | 40 | 0.0 | 1.6 | 0.18 | 0.18 | 0.18 | 99 | 1004.3 |
| 20260506190527 | 15 | 69 | 0.0 | 0.0 | 0.18 | 0.18 | 0.18 | 99 | 1004.3 |
| 20260506190024 | 15 | 220 | 0.0 | 0.0 | 0.00 | 0.15 | 0.15 | 99 | 1004.4 |
| 20260506185522 | 15 | 267 | 0.0 | 0.0 | 0.00 | 0.15 | 0.15 | 99 | 1004.4 |
| 20260506185018 | 15 | 60 | 0.0 | 0.0 | 0.00 | 0.15 | 0.15 | 99 | 1004.3 |
| 20260506184516 | 15 | 94 | 0.0 | 0.0 | 0.00 | 0.15 | 0.15 | 99 | 1004.3 |
| 20260506184013 | 15 | 79 | 0.0 | 1.6 | 0.00 | 0.15 | 0.15 | 99 | 1004.3 |
| 20260506183508 | 15 | 57 | 0.0 | 1.6 | 0.00 | 0.15 | 0.15 | 99 | 1004.4 |
| 20260506183006 | 15 | 187 | 1.6 | 1.6 | 0.00 | 0.15 | 0.15 | 99 | 1004.4 |
| 20260506182502 | 15 | 141 | 0.0 | 1.6 | 0.00 | 0.15 | 0.15 | 99 | 1004.7 |
| 20260506181959 | 15 | 191 | 0.0 | 0.0 | 0.00 | 0.15 | 0.15 | 99 | 1004.7 |
| 20260506181457 | 15 | 227 | 3.2 | 3.2 | 0.00 | 0.15 | 0.15 | 99 | 1004.8 |
| 20260506180954 | 15 | 208 | 1.6 | 1.6 | 0.00 | 0.15 | 0.15 | 99 | 1004.8 |
| 20260506180450 | 15 | 96 | 0.0 | 0.0 | 0.00 | 0.15 | 0.15 | 99 | 1004.9 |
| 20260506175947 | 15 | 139 | 0.0 | 0.0 | 0.13 | 0.15 | 0.15 | 98 | 1004.9 |
| 20260506175444 | 15 | 178 | 1.6 | 1.6 | 0.13 | 0.15 | 0.15 | 98 | 1004.9 |
| 20260506174940 | 15 | 331 | 1.6 | 1.6 | 0.18 | 0.13 | 0.13 | 98 | 1004.9 |
| 20260506174438 | 15 | 339 | 0.0 | 0.0 | 0.18 | 0.13 | 0.13 | 98 | 1005.1 |
| 20260506173935 | 15 | 290 | 1.6 | 1.6 | 0.00 | 0.10 | 0.10 | 97 | 1005.1 |
| 20260506173432 | 15 | 244 | 1.6 | 1.6 | 0.13 | 0.10 | 0.10 | 97 | 1004.9 |
| 20260506172929 | 16 | 194 | 0.0 | 1.6 | 0.13 | 0.10 | 0.10 | 96 | 1004.9 |
| 20260506172426 | 16 | 85 | 0.0 | 1.6 | 0.00 | 0.08 | 0.08 | 96 | 1004.5 |
| 20260506171923 | 16 | 177 | 0.0 | 0.0 | 0.00 | 0.08 | 0.08 | 96 | 1004.5 |
| 20260506171420 | 16 | 200 | 4.8 | 4.8 | 0.00 | 0.08 | 0.08 | 95 | 1004.9 |
| 20260506170918 | 16 | 89 | 0.0 | 0.0 | 0.18 | 0.08 | 0.08 | 95 | 1004.5 |
| 20260506170413 | 16 | 73 | 0.0 | 0.0 | 0.18 | 0.08 | 0.08 | 95 | 1004.9 |
| 20260506165907 | 16 | 60 | 0.0 | 0.0 | 0.13 | 0.05 | 0.05 | 94 | 1004.9 |
| 20260506165405 | 17 | 134 | 1.6 | 1.6 | 0.30 | 0.05 | 0.05 | 93 | 1005.1 |
| 20260506164901 | 17 | 142 | 0.0 | 1.6 | 0.18 | 0.03 | 0.03 | 92 | 1005.1 |
| 20260506164357 | 17 | 147 | 0.0 | 1.6 | 0.00 | 0.00 | 0.00 | 89 | 1005.4 |
| 20260506163855 | 17 | 133 | 1.6 | 1.6 | 0.00 | 0.00 | 0.00 | 88 | 1005.7 |
| 20260506163349 | 17 | 179 | 4.8 | 4.8 | 0.00 | 0.00 | 0.00 | 86 | 1005.8 |
| 20260506162845 | 17 | 183 | 1.6 | 1.6 | 0.00 | 0.00 | 0.00 | 85 | 1006.1 |
| 20260506162344 | 18 | 56 | 0.0 | 0.0 | 0.00 | 0.00 | 0.00 | 84 | 1006.0 |
| 20260506161841 | 18 | 266 | 4.8 | 4.8 | 0.00 | 0.00 | 0.00 | 84 | 1005.8 |
| 20260506161338 | 18 | 315 | 0.0 | 1.6 | 0.00 | 0.00 | 0.00 | 83 | 1005.7 |
| 20260506160836 | 18 | 160 | 1.6 | 1.6 | 0.00 | 0.00 | 0.00 | 81 | 1005.7 |
| 20260506160332 | 18 | 119 | 0.0 | 0.0 | 0.00 | 0.00 | 0.00 | 82 | 1005.7 |
| 20260506155831 | 18 | 83 | 0.0 | 0.0 | 0.00 | 0.00 | 0.00 | 81 | 1005.9 |
| 20260506155326 | 18 | 294 | 3.2 | 3.2 | 0.00 | 0.00 | 0.00 | 78 | 1005.9 |
| 20260506153439 | 18 | 267 | 4.8 | 8.0 | 0.00 | 0.00 | 0.00 | 76 | 1006.0 |
| 20260506152937 | 18 | 229 | 3.2 | 3.2 | 0.00 | 0.00 | 0.00 | 77 | 1006.4 |
| 20260506152433 | 19 | 208 | 3.2 | 3.2 | 0.00 | 0.00 | 0.00 | 76 | 1006.3 |
| 20260506151932 | 19 | 304 | 4.8 | 8.0 | 0.00 | 0.00 | 0.00 | 76 | 1006.3 |
| 20260506151429 | 19 | 260 | 6.4 | 9.7 | 0.00 | 0.00 | 0.00 | 77 | 1006.0 |
| 20260506150927 | 19 | 225 | 6.4 | 8.0 | 0.00 | 0.00 | 0.00 | 75 | 1006.1 |
| 20260506150422 | 20 | 223 | 4.8 | 4.8 | 0.00 | 0.00 | 0.00 | 75 | 1006.2 |
| 20260506145919 | 20 | 204 | 3.2 | 3.2 | 0.00 | 0.00 | 0.00 | 76 | 1006.3 |
| 20260506145415 | 20 | 212 | 3.2 | 3.2 | 0.00 | 0.00 | 0.00 | 75 | 1006.3 |
| 20260506144913 | 19 | 256 | 3.2 | 3.2 | 0.00 | 0.00 | 0.00 | 77 | 1006.0 |
| 20260506144409 | 19 | 223 | 4.8 | 4.8 | 0.00 | 0.00 | 0.00 | 77 | 1006.2 |
| 20260506143908 | 19 | 288 | 1.6 | 3.2 | 0.00 | 0.00 | 0.00 | 77 | 1006.3 |
| 20260506143404 | 18 | 211 | 3.2 | 4.8 | 0.00 | 0.00 | 0.00 | 77 | 1006.1 |
| 20260506142903 | 18 | 231 | 3.2 | 4.8 | 0.00 | 0.00 | 0.00 | 78 | 1006.2 |
| 20260506142401 | 18 | 140 | 1.6 | 3.2 | 0.00 | 0.00 | 0.00 | 78 | 1006.4 |
| 20260506141858 | 18 | 242 | 6.4 | 8.0 | 0.00 | 0.00 | 0.00 | 79 | 1006.2 |
| 20260506141356 | 18 | 262 | 4.8 | 8.0 | 0.00 | 0.00 | 0.00 | 78 | 1006.1 |
| 20260506140854 | 18 | 250 | 4.8 | 4.8 | 0.00 | 0.00 | 0.00 | 77 | 1006.5 |
| 20260506140351 | 19 | 240 | 4.8 | 4.8 | 0.00 | 0.00 | 0.00 | 78 | 1006.5 |
| 20260506135848 | 18 | 311 | 1.6 | 1.6 | 0.00 | 0.00 | 0.00 | 80 | 1006.3 |
| 20260506135345 | 18 | 242 | 4.8 | 4.8 | 0.00 | 0.00 | 0.00 | 79 | 1006.2 |
| 20260506134841 | 18 | 221 | 6.4 | 9.7 | 0.00 | 0.00 | 0.00 | 79 | 1006.2 |
| 20260506134337 | 18 | 240 | 3.2 | 4.8 | 0.00 | 0.00 | 0.00 | 81 | 1006.2 |
| 20260506133835 | 18 | 269 | 3.2 | 4.8 | 0.00 | 0.00 | 0.00 | 81 | 1006.1 |
| 20260506133331 | 18 | 210 | 1.6 | 3.2 | 0.00 | 0.00 | 0.00 | 82 | 1006.1 |
| 20260506132828 | 18 | 205 | 3.2 | 3.2 | 0.00 | 0.00 | 0.00 | 82 | 1006.2 |
| 20260506132325 | 18 | 236 | 1.6 | 4.8 | 0.00 | 0.00 | 0.00 | 82 | 1006.3 |
| 20260506131823 | 17 | 237 | 3.2 | 3.2 | 0.00 | 0.00 | 0.00 | 82 | 1006.2 |
| 20260506131319 | 17 | 212 | 1.6 | 3.2 | 0.00 | 0.00 | 0.00 | 84 | 1006.0 |
| 20260506130816 | 17 | 156 | 1.6 | 1.6 | 0.00 | 0.00 | 0.00 | 84 | 1006.2 |
| 20260506130312 | 17 | 92 | 0.0 | 0.0 | 0.00 | 0.00 | 0.00 | 86 | 1006.2 |
| 20260506125811 | 16 | 102 | 1.6 | 1.6 | 0.00 | 0.00 | 0.00 | 87 | 1006.1 |
| 20260506125309 | 16 | 290 | 1.6 | 1.6 | 0.00 | 0.00 | 0.00 | 86 | 1006.4 |
| 20260506124807 | 16 | 210 | 0.0 | 0.0 | 0.00 | 0.00 | 0.00 | 88 | 1006.3 |
| 20260506124303 | 16 | 77 | 0.0 | 1.6 | 0.00 | 0.00 | 0.00 | 87 | 1006.3 |
| 20260506123801 | 16 | 193 | 1.6 | 3.2 | 0.00 | 0.00 | 0.00 | 88 | 1006.2 |
| 20260506123300 | 16 | 130 | 0.0 | 0.0 | 0.00 | 0.00 | 0.00 | 88 | 1006.1 |
| 20260506122756 | 16 | 320 | 1.6 | 1.6 | 0.00 | 0.00 | 0.00 | 88 | 1006.4 |
| 20260506122253 | 16 | 233 | 1.6 | 3.2 | 0.00 | 0.00 | 0.00 | 88 | 1006.3 |
| 20260506121751 | 16 | 184 | 1.6 | 1.6 | 0.00 | 0.00 | 0.00 | 89 | 1006.3 |
| 20260506121248 | 16 | 141 | 0.0 | 0.0 | 0.00 | 0.00 | 0.00 | 89 | 1006.5 |
| 20260506120745 | 16 | 257 | 1.6 | 3.2 | 0.00 | 0.00 | 0.00 | 89 | 1006.6 |
| 20260506120243 | 16 | 255 | 3.2 | 3.2 | 0.00 | 0.00 | 0.00 | 89 | 1006.9 |
| 20260506115740 | 16 | 102 | 1.6 | 3.2 | 0.00 | 0.00 | 0.00 | 90 | 1006.9 |
| 20260506115238 | 15 | 216 | 1.6 | 1.6 | 0.00 | 0.00 | 0.00 | 89 | 1006.6 |
| 20260506114736 | 15 | 339 | 1.6 | 1.6 | 0.00 | 0.00 | 0.00 | 90 | 1006.5 |
| 20260506114233 | 15 | 214 | 1.6 | 3.2 | 0.00 | 0.00 | 0.00 | 91 | 1006.7 |
| 20260506113732 | 15 | 118 | 0.0 | 0.0 | 0.00 | 0.00 | 0.00 | 92 | 1006.4 |
| 20260506113229 | 15 | 212 | 1.6 | 3.2 | 0.00 | 0.00 | 0.00 | 92 | 1006.6 |
| 20260506112725 | 15 | 98 | 0.0 | 0.0 | 0.00 | 0.00 | 0.00 | 93 | 1006.6 |
| 20260506112223 | 14 | 160 | 0.0 | 1.6 | 0.00 | 0.00 | 0.00 | 94 | 1006.7 |
| 20260506111720 | 14 | 232 | 0.0 | 0.0 | 0.00 | 0.00 | 0.00 | 94 | 1006.5 |
| 20260506111218 | 14 | 99 | 0.0 | 1.6 | 0.00 | 0.00 | 0.00 | 95 | 1006.5 |
| 20260506110715 | 13 | 104 | 0.0 | 1.6 | 0.00 | 0.00 | 0.00 | 96 | 1006.5 |
| 20260506110213 | 13 | 79 | 0.0 | 0.0 | 0.00 | 0.00 | 0.00 | 96 | 1007.0 |
| 20260506105709 | 13 | 132 | 0.0 | 0.0 | 0.00 | 0.00 | 0.00 | 96 | 1007.0 |
| 20260506105206 | 13 | 76 | 0.0 | 0.0 | 0.00 | 0.00 | 0.00 | 97 | 1006.7 |
| 20260506104704 | 13 | 89 | 0.0 | 0.0 | 0.00 | 0.00 | 0.00 | 97 | 1006.7 |
| 20260506104201 | 13 | 101 | 0.0 | 0.0 | 0.00 | 0.00 | 0.00 | 98 | 1006.8 |
| 20260506103658 | 13 | 110 | 0.0 | 0.0 | 0.00 | 0.00 | 0.00 | 98 | 1006.8 |
| 20260506103155 | 13 | 43 | 0.0 | 0.0 | 0.00 | 0.00 | 0.00 | 98 | 1006.8 |
| 20260506102653 | 13 | 43 | 0.0 | 0.0 | 0.00 | 0.00 | 0.00 | 98 | 1006.6 |
| 20260506102150 | 12 | 80 | 0.0 | 0.0 | 0.00 | 0.00 | 0.00 | 98 | 1006.5 |
| 20260506101647 | 12 | 82 | 0.0 | 0.0 | 0.00 | 0.00 | 0.00 | 98 | 1006.7 |
| 20260506101144 | 12 | 88 | 0.0 | 0.0 | 0.00 | 0.00 | 0.00 | 98 | 1006.4 |
| 20260506100642 | 12 | 90 | 0.0 | 0.0 | 0.00 | 0.00 | 0.00 | 98 | 1006.5 |
| 20260506100140 | 12 | 113 | 1.6 | 1.6 | 0.00 | 0.00 | 0.00 | 99 | 1006.5 |
| 20260506095638 | 12 | 70 | 0.0 | 0.0 | 0.00 | 0.00 | 0.00 | 99 | 1006.6 |
| 20260506095135 | 12 | 93 | 0.0 | 0.0 | 0.00 | 0.00 | 0.00 | 99 | 1006.5 |
| 20260506094632 | 12 | 78 | 0.0 | 0.0 | 0.00 | 0.00 | 0.00 | 99 | 1006.3 |
| 20260506094130 | 12 | 70 | 0.0 | 0.0 | 0.00 | 0.00 | 0.00 | 99 | 1006.4 |
| 20260506093628 | 12 | 87 | 0.0 | 0.0 | 0.00 | 0.00 | 0.00 | 98 | 1006.4 |
| 20260506093125 | 12 | 130 | 1.6 | 1.6 | 0.00 | 0.00 | 0.00 | 98 | 1006.4 |
| 20260506092623 | 12 | 103 | 0.0 | 0.0 | 0.00 | 0.00 | 0.00 | 98 | 1006.6 |
| 20260506092119 | 12 | 86 | 0.0 | 0.0 | 0.00 | 0.00 | 0.00 | 98 | 1006.4 |
| 20260506091618 | 12 | 56 | 0.0 | 0.0 | 0.00 | 0.00 | 0.00 | 98 | 1006.4 |
| 20260506091115 | 12 | 82 | 0.0 | 0.0 | 0.00 | 0.00 | 0.00 | 98 | 1006.4 |
| 20260506090613 | 12 | 72 | 0.0 | 0.0 | 0.00 | 0.00 | 0.00 | 97 | 1006.3 |
| 20260506090109 | 12 | 163 | 0.0 | 0.0 | 0.00 | 0.00 | 0.00 | 97 | 1006.6 |
| 20260506085606 | 12 | 187 | 0.0 | 0.0 | 0.00 | 0.00 | 0.00 | 97 | 1006.6 |
| 20260506085102 | 12 | 188 | 0.0 | 0.0 | 0.00 | 0.00 | 0.00 | 96 | 1006.6 |
| 20260506084559 | 12 | 188 | 0.0 | 0.0 | 0.00 | 0.00 | 0.00 | 96 | 1006.8 |
| 20260506084056 | 12 | 75 | 0.0 | 0.0 | 0.00 | 0.00 | 0.00 | 96 | 1006.7 |
| 20260506083553 | 12 | 88 | 0.0 | 0.0 | 0.00 | 0.00 | 0.00 | 96 | 1006.8 |
| 20260506083050 | 12 | 47 | 0.0 | 0.0 | 0.00 | 0.00 | 0.00 | 96 | 1006.6 |
| 20260506082547 | 12 | 72 | 0.0 | 0.0 | 0.00 | 0.00 | 0.00 | 96 | 1006.7 |
| 20260506082042 | 12 | 75 | 0.0 | 0.0 | 0.00 | 0.00 | 0.00 | 95 | 1006.7 |
| 20260506081541 | 12 | 109 | 0.0 | 0.0 | 0.00 | 0.00 | 0.00 | 95 | 1006.8 |
| 20260506081038 | 12 | 82 | 0.0 | 0.0 | 0.00 | 0.00 | 0.00 | 95 | 1006.6 |
| 20260506080535 | 12 | 78 | 1.6 | 1.6 | 0.00 | 0.00 | 0.00 | 94 | 1006.7 |
| 20260506073519 | 13 | 101 | 0.0 | 0.0 | 0.00 | 0.00 | 0.00 | 92 | 1006.7 |
| 20260506073016 | 13 | 246 | 0.0 | 1.6 | 0.00 | 0.00 | 0.00 | 92 | 1006.8 |
| 20260506072513 | 13 | 70 | 0.0 | 0.0 | 0.00 | 0.00 | 0.00 | 92 | 1006.7 |
| 20260506072011 | 13 | 68 | 0.0 | 0.0 | 0.00 | 0.00 | 0.00 | 91 | 1006.9 |
| 20260506071508 | 13 | 98 | 0.0 | 0.0 | 0.00 | 0.00 | 0.00 | 91 | 1006.7 |
| 20260506071005 | 13 | 76 | 0.0 | 0.0 | 0.00 | 0.00 | 0.00 | 91 | 1006.9 |
| 20260506070503 | 13 | 102 | 1.6 | 1.6 | 0.00 | 0.00 | 0.00 | 91 | 1006.8 |
| 20260506062440 | 14 | 75 | 0.0 | 0.0 | 0.00 | 0.00 | 0.00 | 87 | 1007.0 |
| 20260506061936 | 14 | 116 | 0.0 | 0.0 | 0.00 | 0.00 | 0.00 | 86 | 1006.9 |
| 20260506061432 | 15 | 120 | 0.0 | 0.0 | 0.00 | 0.00 | 0.00 | 85 | 1006.8 |
| 20260506060930 | 15 | 88 | 0.0 | 0.0 | 0.00 | 0.00 | 0.00 | 85 | 1006.7 |
| 20260506060428 | 15 | 86 | 0.0 | 0.0 | 0.00 | 0.00 | 0.00 | 84 | 1006.8 |
| 20260506051400 | 16 | 277 | 1.6 | 1.6 | 0.00 | 0.00 | 0.00 | 77 | 1007.3 |
| 20260506050857 | 16 | 230 | 1.6 | 1.6 | 0.00 | 0.00 | 0.00 | 77 | 1007.2 |
| 20260506050355 | 16 | 49 | 0.0 | 0.0 | 0.00 | 0.00 | 0.00 | 77 | 1007.2 |
| 20260506044845 | 17 | 258 | 3.2 | 3.2 | 0.00 | 0.00 | 0.00 | 76 | 1007.2 |
| 20260506044343 | 16 | 312 | 1.6 | 3.2 | 0.00 | 0.00 | 0.00 | 75 | 1007.2 |
| 20260506043840 | 16 | 236 | 3.2 | 3.2 | 0.00 | 0.00 | 0.00 | 76 | 1007.3 |
| 20260506043337 | 17 | 68 | 1.6 | 1.6 | 0.00 | 0.00 | 0.00 | 75 | 1007.3 |
| 20260506042835 | 17 | 179 | 1.6 | 1.6 | 0.00 | 0.00 | 0.00 | 76 | 1007.4 |
| 20260506042334 | 17 | 233 | 1.6 | 3.2 | 0.00 | 0.00 | 0.00 | 74 | 1007.4 |
| 20260506041833 | 17 | 111 | 1.6 | 1.6 | 0.00 | 0.00 | 0.00 | 75 | 1007.1 |
| 20260506041329 | 17 | 93 | 1.6 | 1.6 | 0.00 | 0.00 | 0.00 | 74 | 1007.1 |
| 20260506040826 | 17 | 195 | 1.6 | 1.6 | 0.00 | 0.00 | 0.00 | 74 | 1007.2 |
| 20260506040324 | 17 | 154 | 0.0 | 1.6 | 0.00 | 0.00 | 0.00 | 75 | 1007.3 |
| 20260506035820 | 17 | 51 | 0.0 | 0.0 | 0.00 | 0.05 | 0.05 | 74 | 1007.2 |
| 20260506035317 | 17 | 20 | 3.2 | 4.8 | 0.00 | 0.05 | 0.05 | 73 | 1007.2 |
| 20260506034814 | 17 | 192 | 1.6 | 1.6 | 0.00 | 0.05 | 0.05 | 73 | 1007.2 |
| 20260506034312 | 17 | 250 | 4.8 | 4.8 | 0.00 | 0.05 | 0.05 | 72 | 1007.1 |
| 20260506033809 | 17 | 244 | 0.0 | 1.6 | 0.00 | 0.05 | 0.05 | 73 | 1007.3 |
| 20260506033305 | 17 | 45 | 0.0 | 0.0 | 0.00 | 0.05 | 0.05 | 72 | 1007.3 |
| 20260506032802 | 17 | 165 | 0.0 | 1.6 | 0.00 | 0.05 | 0.05 | 72 | 1007.1 |
| 20260506032259 | 18 | 102 | 0.0 | 0.0 | 0.00 | 0.05 | 0.05 | 71 | 1007.3 |
| 20260506031755 | 18 | 258 | 3.2 | 4.8 | 0.00 | 0.05 | 0.05 | 70 | 1007.1 |
| 20260506031253 | 18 | 287 | 1.6 | 1.6 | 0.00 | 0.05 | 0.05 | 70 | 1006.9 |
| 20260506030751 | 18 | 107 | 0.0 | 0.0 | 0.00 | 0.05 | 0.05 | 70 | 1007.1 |
| 20260506030249 | 18 | 93 | 3.2 | 3.2 | 0.00 | 0.05 | 0.05 | 70 | 1007.0 |
| 20260506025745 | 18 | 185 | 1.6 | 1.6 | 0.00 | 0.05 | 0.05 | 70 | 1007.1 |
| 20260506025242 | 18 | 66 | 3.2 | 3.2 | 0.00 | 0.05 | 0.05 | 70 | 1007.0 |
| 20260506024739 | 18 | 59 | 0.0 | 0.0 | 0.00 | 0.05 | 0.05 | 70 | 1006.9 |
| 20260506024235 | 18 | 236 | 1.6 | 1.6 | 0.00 | 0.05 | 0.05 | 68 | 1007.0 |
| 20260506023731 | 18 | 161 | 1.6 | 1.6 | 0.00 | 0.05 | 0.05 | 70 | 1007.1 |
| 20260506023229 | 18 | 193 | 1.6 | 3.2 | 0.00 | 0.05 | 0.05 | 69 | 1007.1 |
| 20260506022725 | 17 | 201 | 4.8 | 8.0 | 0.00 | 0.05 | 0.05 | 70 | 1007.0 |
| 20260506022223 | 18 | 60 | 0.0 | 1.6 | 0.00 | 0.05 | 0.05 | 70 | 1007.1 |
| 20260506021721 | 17 | 161 | 1.6 | 1.6 | 0.00 | 0.05 | 0.05 | 71 | 1007.1 |
| 20260506021218 | 17 | 245 | 1.6 | 3.2 | 0.00 | 0.05 | 0.05 | 71 | 1007.0 |
| 20260506020714 | 17 | 65 | 0.0 | 1.6 | 0.00 | 0.05 | 0.05 | 71 | 1006.8 |
| 20260506020213 | 17 | 264 | 4.8 | 4.8 | 0.00 | 0.05 | 0.05 | 71 | 1006.8 |
| 20260506015710 | 17 | 110 | 0.0 | 0.0 | 0.00 | 0.05 | 0.05 | 71 | 1007.0 |